Flag for Germany Weather past 2 weeks in Neuwied, Rhineland-Palatinate, Germany

Now
57 °F

Partly sunny.


Feels Like: 57 °F
Forecast: 51 / 84 °F
Wind: 3 mph from East

Location: Buechel

Current Time: Aug 28, 2015 at 12:24:01 PM

Latest Report: Aug 28, 2015 at 11:52 AM


Visibility: 5 mi

Pressure: 30.09 "Hg

Humidity: 88%

Dew point: 54 °F

Location of NeuwiedLocation

Historic Weather in Neuwied — Graph

°F

Neuwied temperature yesterday

Maximum temperature yesterday: 68 °F (at 12:20 AM)
Minimum temperature yesterday: 57 °F (at 11:20 PM)
Average temperature yesterday: 63 °F

Past Weeks' High & Low Weather Summary

 TemperatureHumidityPressure
High88 °F (Aug 13, 6:20 PM)100% (Aug 14, 2:20 AM)30.30 "Hg (Aug 14, 2:20 AM)
Low48 °F (Aug 19, 5:20 AM)29% (Aug 13, 6:20 PM)29.65 "Hg (Aug 24, 12:20 PM)
Average61 °F74%29.97 "Hg
* Reported Aug 13 10:20 AM — Aug 28 10:20 AM, Neuwied, Weather by CustomWeather, © 2015

Note: Actual official high and low records may vary slightly from our data, if they occured in-between our weather recording intervals... More about our weather records

Advertising

Neuwied weather history for previous 24 hours

 ConditionsComfort  
Time TempWeatherWind HumidityBarometerVisibility
10:20 AM
Fri, Aug 28
55 °FFog.5 mph94%30.07 "Hg2 mi
9:48 AM54 °FFog.5 mph100%30.04 "Hg2 mi
9:20 AM54 °FFog.6 mph100%30.04 "Hg1 mi
8:20 AM54 °FDrizzle. Fog.6 mph100%30.04 "Hg1 mi
8:03 AM54 °FDrizzle. Fog.5 mph100%30.01 "Hg1 mi
7:20 AM54 °FDrizzle. Fog.3 mph100%30.01 "Hg1 mi
6:20 AM54 °FFog.3 mph100%30.01 "Hg2 mi
5:20 AM54 °FDrizzle. Fog.3 mph100%29.98 "Hg2 mi
4:20 AM54 °FCool.2 mph100%29.98 "Hg3 mi
3:20 AM54 °FCool.2 mph100%29.95 "HgN/A
2:20 AM55 °FCool.3 mph100%29.95 "HgN/A
1:20 AM55 °FCool.5 mph100%29.95 "Hg3 mi
12:20 AM57 °FCool.5 mph94%29.92 "Hg2 mi
11:20 PM
Thu, Aug 27
57 °FCool.5 mph100%29.89 "Hg2 mi
10:20 PM61 °FCool.8 mph94%29.89 "Hg1 mi
9:20 PM61 °FCool.8 mph100%29.89 "Hg2 mi
8:20 PM61 °FCool.8 mph100%29.86 "Hg2 mi
7:20 PM63 °FRain. Overcast.5 mph94%29.89 "Hg4 mi
6:20 PM63 °FRain. Overcast.6 mph100%29.89 "Hg4 mi
5:20 PM64 °FPartly sunny.6 mph88%29.86 "HgN/A
4:20 PM64 °FBroken clouds.7 mph83%29.86 "HgN/A
3:20 PM63 °FLight rain. Partly sunny.7 mph88%29.89 "HgN/A
2:20 PM63 °FPartly sunny.7 mph88%29.89 "HgN/A
1:20 PM63 °FBroken clouds.7 mph94%29.92 "Hg5 mi
12:58 PM61 °FFog.6 mph100%29.92 "Hg2 mi
12:20 PM59 °FFog.7 mph100%29.92 "Hg2 mi
Weather by CustomWeather, © 2015

See weather overviewHow to use our weather pages